owner,sensor,date,latitude,longitude,vertical_datum,sea_water_practical_salinity,qcFlag 
NERRS,ioos:station:NOAA.NERRS:rkblhwq:1,2017-04-01T00:45:00Z,26.0257,-81.7332,1.05,35.6,1111122 
NERRS,ioos:station:NOAA.NERRS:rkblhwq:1,2017-04-01T01:45:00Z,26.0257,-81.7332,0.89,35.7,1111122 
NERRS,ioos:station:NOAA.NERRS:rkblhwq:1,2017-04-01T02:45:00Z,26.0257,-81.7332,0.75,35.7,1111122 
NERRS,ioos:station:NOAA.NERRS:rkblhwq:1,2017-04-01T03:45:00Z,26.0257,-81.7332,0.66,35.7,1111122 
NERRS,ioos:station:NOAA.NERRS:rkblhwq:1,2017-04-01T04:45:00Z,26.0257,-81.7332,0.69,35.6,1111122 
NERRS,ioos:station:NOAA.NERRS:rkblhwq:1,2017-04-01T05:45:00Z,26.0257,-81.7332,0.81,35.5,1111122 
NERRS,ioos:station:NOAA.NERRS:rkblhwq:1,2017-04-01T06:45:00Z,26.0257,-81.7332,0.97,35.5,1111122 
NERRS,ioos:station:NOAA.NERRS:rkblhwq:1,2017-04-01T07:45:00Z,26.0257,-81.7332,1.13,35.4,1111122 
NERRS,ioos:station:NOAA.NERRS:rkblhwq:1,2017-04-01T08:45:00Z,26.0257,-81.7332,1.27,35.4,1111122 
NERRS,ioos:station:NOAA.NERRS:rkblhwq:1,2017-04-01T09:45:00Z,26.0257,-81.7332,1.35,35.4,1111122 
NERRS,ioos:station:NOAA.NERRS:rkblhwq:1,2017-04-01T10:45:00Z,26.0257,-81.7332,1.31,35.5,1111122 
NERRS,ioos:station:NOAA.NERRS:rkblhwq:1,2017-04-01T11:45:00Z,26.0257,-81.7332,1.2,35.4,1111122 
NERRS,ioos:station:NOAA.NERRS:rkblhwq:1,2017-04-01T12:45:00Z,26.0257,-81.7332,1.1,35.5,1111122 
NERRS,ioos:station:NOAA.NERRS:rkblhwq:1,2017-04-01T13:45:00Z,26.0257,-81.7332,1.0,35.5,1111122 
NERRS,ioos:station:NOAA.NERRS:rkblhwq:1,2017-04-01T14:45:00Z,26.0257,-81.7332,0.92,35.5,1111122 
NERRS,ioos:station:NOAA.NERRS:rkblhwq:1,2017-04-01T15:45:00Z,26.0257,-81.7332,0.9,35.5,1111122 
NERRS,ioos:station:NOAA.NERRS:rkblhwq:1,2017-04-01T16:45:00Z,26.0257,-81.7332,0.98,35.4,1111122 
NERRS,ioos:station:NOAA.NERRS:rkblhwq:1,2017-04-01T17:45:00Z,26.0257,-81.7332,1.12,35.4,1111122 
NERRS,ioos:station:NOAA.NERRS:rkblhwq:1,2017-04-01T18:45:00Z,26.0257,-81.7332,1.26,35.3,1111122 
NERRS,ioos:station:NOAA.NERRS:rkblhwq:1,2017-04-01T19:45:00Z,26.0257,-81.7332,1.38,35.3,1111122 
NERRS,ioos:station:NOAA.NERRS:rkblhwq:1,2017-04-01T20:45:00Z,26.0257,-81.7332,1.46,35.2,1111122 
NERRS,ioos:station:NOAA.NERRS:rkblhwq:1,2017-04-01T21:45:00Z,26.0257,-81.7332,1.45,35.4,1111122 
NERRS,ioos:station:NOAA.NERRS:rkblhwq:1,2017-04-01T22:45:00Z,26.0257,-81.7332,1.35,35.3,1111122 
NERRS,ioos:station:NOAA.NERRS:rkblhwq:1,2017-04-01T23:45:00Z,26.0257,-81.7332,1.22,35.4,1111122 
NERRS,ioos:station:NOAA.NERRS:rkblhwq:1,2017-04-02T00:45:00Z,26.0257,-81.7332,1.08,35.4,1111122 
NERRS,ioos:station:NOAA.NERRS:rkblhwq:1,2017-04-02T01:45:00Z,26.0257,-81.7332,0.94,35.5,1111122 
NERRS,ioos:station:NOAA.NERRS:rkblhwq:1,2017-04-02T02:45:00Z,26.0257,-81.7332,0.8,35.5,1111122 
NERRS,ioos:station:NOAA.NERRS:rkblhwq:1,2017-04-02T03:45:00Z,26.0257,-81.7332,0.68,35.6,1111122 
NERRS,ioos:station:NOAA.NERRS:rkblhwq:1,2017-04-02T04:45:00Z,26.0257,-81.7332,0.59,35.6,1111122 
NERRS,ioos:station:NOAA.NERRS:rkblhwq:1,2017-04-02T05:45:00Z,26.0257,-81.7332,0.62,35.5,1111122 
NERRS,ioos:station:NOAA.NERRS:rkblhwq:1,2017-04-02T06:45:00Z,26.0257,-81.7332,0.73,35.5,1111122 
NERRS,ioos:station:NOAA.NERRS:rkblhwq:1,2017-04-02T07:45:00Z,26.0257,-81.7332,0.86,35.5,1111122 
NERRS,ioos:station:NOAA.NERRS:rkblhwq:1,2017-04-02T08:45:00Z,26.0257,-81.7332,1.01,35.3,1111122 
NERRS,ioos:station:NOAA.NERRS:rkblhwq:1,2017-04-02T09:45:00Z,26.0257,-81.7332,1.15,35.4,1111122 
NERRS,ioos:station:NOAA.NERRS:rkblhwq:1,2017-04-02T10:45:00Z,26.0257,-81.7332,1.26,35.4,1111122 
NERRS,ioos:station:NOAA.NERRS:rkblhwq:1,2017-04-02T11:45:00Z,26.0257,-81.7332,1.25,35.5,1111122 
NERRS,ioos:station:NOAA.NERRS:rkblhwq:1,2017-04-02T12:45:00Z,26.0257,-81.7332,1.17,35.4,1111122 
NERRS,ioos:station:NOAA.NERRS:rkblhwq:1,2017-04-02T13:45:00Z,26.0257,-81.7332,1.09,35.5,1111122 
NERRS,ioos:station:NOAA.NERRS:rkblhwq:1,2017-04-02T14:45:00Z,26.0257,-81.7332,1.01,35.5,1111122 
NERRS,ioos:station:NOAA.NERRS:rkblhwq:1,2017-04-02T15:45:00Z,26.0257,-81.7332,0.97,35.5,1111122 
NERRS,ioos:station:NOAA.NERRS:rkblhwq:1,2017-04-02T16:45:00Z,26.0257,-81.7332,0.98,35.5,1111122 
NERRS,ioos:station:NOAA.NERRS:rkblhwq:1,2017-04-02T17:45:00Z,26.0257,-81.7332,1.04,35.4,1111122 
NERRS,ioos:station:NOAA.NERRS:rkblhwq:1,2017-04-02T18:45:00Z,26.0257,-81.7332,1.15,35.5,1111122 
NERRS,ioos:station:NOAA.NERRS:rkblhwq:1,2017-04-02T19:45:00Z,26.0257,-81.7332,1.26,35.4,1111122 
NERRS,ioos:station:NOAA.NERRS:rkblhwq:1,2017-04-02T20:45:00Z,26.0257,-81.7332,1.35,35.4,1111122 
NERRS,ioos:station:NOAA.NERRS:rkblhwq:1,2017-04-02T21:45:00Z,26.0257,-81.7332,1.42,35.3,1111122 
NERRS,ioos:station:NOAA.NERRS:rkblhwq:1,2017-04-02T22:45:00Z,26.0257,-81.7332,1.44,35.4,1111122 
NERRS,ioos:station:NOAA.NERRS:rkblhwq:1,2017-04-02T23:45:00Z,26.0257,-81.7332,1.36,35.4,1111122 
NERRS,ioos:station:NOAA.NERRS:rkblhwq:1,2017-04-03T00:45:00Z,26.0257,-81.7332,1.24,35.4,1111122 
NERRS,ioos:station:NOAA.NERRS:rkblhwq:1,2017-04-03T01:45:00Z,26.0257,-81.7332,1.11,35.5,1111122 
NERRS,ioos:station:NOAA.NERRS:rkblhwq:1,2017-04-03T02:45:00Z,26.0257,-81.7332,0.97,35.6,1111122 
NERRS,ioos:station:NOAA.NERRS:rkblhwq:1,2017-04-03T03:45:00Z,26.0257,-81.7332,0.83,35.6,1111122 
NERRS,ioos:station:NOAA.NERRS:rkblhwq:1,2017-04-03T05:45:00Z,26.0257,-81.7332,0.63,35.7,1111122 
NERRS,ioos:station:NOAA.NERRS:rkblhwq:1,2017-04-03T06:45:00Z,26.0257,-81.7332,0.65,35.6,1111122 
NERRS,ioos:station:NOAA.NERRS:rkblhwq:1,2017-04-03T07:45:00Z,26.0257,-81.7332,0.75,35.6,1111122 
NERRS,ioos:station:NOAA.NERRS:rkblhwq:1,2017-04-03T08:45:00Z,26.0257,-81.7332,0.88,35.5,1111122 
NERRS,ioos:station:NOAA.NERRS:rkblhwq:1,2017-04-03T09:45:00Z,26.0257,-81.7332,1.03,35.5,1111122 
NERRS,ioos:station:NOAA.NERRS:rkblhwq:1,2017-04-03T10:45:00Z,26.0257,-81.7332,1.17,35.4,1111122 
NERRS,ioos:station:NOAA.NERRS:rkblhwq:1,2017-04-03T12:45:00Z,26.0257,-81.7332,1.32,35.6,1111122 
NERRS,ioos:station:NOAA.NERRS:rkblhwq:1,2017-04-03T13:45:00Z,26.0257,-81.7332,1.26,35.4,1111122 
NERRS,ioos:station:NOAA.NERRS:rkblhwq:1,2017-04-03T14:45:00Z,26.0257,-81.7332,1.18,35.5,1111122 
NERRS,ioos:station:NOAA.NERRS:rkblhwq:1,2017-04-03T15:45:00Z,26.0257,-81.7332,1.11,35.4,1111122 
NERRS,ioos:station:NOAA.NERRS:rkblhwq:1,2017-04-03T16:45:00Z,26.0257,-81.7332,1.06,35.5,1111122 
NERRS,ioos:station:NOAA.NERRS:rkblhwq:1,2017-04-03T17:45:00Z,26.0257,-81.7332,1.06,35.4,1111122 
NERRS,ioos:station:NOAA.NERRS:rkblhwq:1,2017-04-03T18:45:00Z,26.0257,-81.7332,1.1,35.4,1111122 
NERRS,ioos:station:NOAA.NERRS:rkblhwq:1,2017-04-03T19:45:00Z,26.0257,-81.7332,1.18,35.5,1111122 
NERRS,ioos:station:NOAA.NERRS:rkblhwq:1,2017-04-03T20:45:00Z,26.0257,-81.7332,1.28,35.3,1111122 
NERRS,ioos:station:NOAA.NERRS:rkblhwq:1,2017-04-03T21:45:00Z,26.0257,-81.7332,1.38,35.4,1111122 
NERRS,ioos:station:NOAA.NERRS:rkblhwq:1,2017-04-03T23:45:00Z,26.0257,-81.7332,1.38,35.4,1111122 
NERRS,ioos:station:NOAA.NERRS:rkblhwq:1,2017-04-04T00:45:00Z,26.0257,-81.7332,1.32,35.4,1111122 
NERRS,ioos:station:NOAA.NERRS:rkblhwq:1,2017-04-04T01:45:00Z,26.0257,-81.7332,1.23,35.4,1111122 
NERRS,ioos:station:NOAA.NERRS:rkblhwq:1,2017-04-04T02:45:00Z,26.0257,-81.7332,1.12,35.6,1111122 
NERRS,ioos:station:NOAA.NERRS:rkblhwq:1,2017-04-04T03:45:00Z,26.0257,-81.7332,0.99,35.6,1111122 
NERRS,ioos:station:NOAA.NERRS:rkblhwq:1,2017-04-04T04:45:00Z,26.0257,-81.7332,0.87,35.7,1111122 
NERRS,ioos:station:NOAA.NERRS:rkblhwq:1,2017-04-04T05:45:00Z,26.0257,-81.7332,0.77,35.7,1111122 
NERRS,ioos:station:NOAA.NERRS:rkblhwq:1,2017-04-04T06:45:00Z,26.0257,-81.7332,0.69,35.7,1111122 
NERRS,ioos:station:NOAA.NERRS:rkblhwq:1,2017-04-04T07:45:00Z,26.0257,-81.7332,0.7,35.7,1111122 
NERRS,ioos:station:NOAA.NERRS:rkblhwq:1,2017-04-04T08:45:00Z,26.0257,-81.7332,0.79,35.6,1111122 
NERRS,ioos:station:NOAA.NERRS:rkblhwq:1,2017-04-04T09:45:00Z,26.0257,-81.7332,0.91,35.6,1111122 
NERRS,ioos:station:NOAA.NERRS:rkblhwq:1,2017-04-04T10:45:00Z,26.0257,-81.7332,1.04,35.6,1111122 
NERRS,ioos:station:NOAA.NERRS:rkblhwq:1,2017-04-04T11:45:00Z,26.0257,-81.7332,1.16,35.5,1111122 
NERRS,ioos:station:NOAA.NERRS:rkblhwq:1,2017-04-04T12:45:00Z,26.0257,-81.7332,1.27,35.5,1111122 
NERRS,ioos:station:NOAA.NERRS:rkblhwq:1,2017-04-04T13:45:00Z,26.0257,-81.7332,1.35,35.6,1111122 
NERRS,ioos:station:NOAA.NERRS:rkblhwq:1,2017-04-04T14:45:00Z,26.0257,-81.7332,1.35,35.7,1111122 
NERRS,ioos:station:NOAA.NERRS:rkblhwq:1,2017-04-04T15:45:00Z,26.0257,-81.7332,1.29,35.5,1111122 
NERRS,ioos:station:NOAA.NERRS:rkblhwq:1,2017-04-04T16:45:00Z,26.0257,-81.7332,1.21,35.6,1111122 
NERRS,ioos:station:NOAA.NERRS:rkblhwq:1,2017-04-04T17:45:00Z,26.0257,-81.7332,1.14,35.5,1111122 
NERRS,ioos:station:NOAA.NERRS:rkblhwq:1,2017-04-04T18:45:00Z,26.0257,-81.7332,1.11,35.5,1111122 
NERRS,ioos:station:NOAA.NERRS:rkblhwq:1,2017-04-04T19:45:00Z,26.0257,-81.7332,1.05,35.5,1111122 
NERRS,ioos:station:NOAA.NERRS:rkblhwq:1,2017-04-04T20:45:00Z,26.0257,-81.7332,1.07,35.6,1111122 
NERRS,ioos:station:NOAA.NERRS:rkblhwq:1,2017-04-04T21:45:00Z,26.0257,-81.7332,1.16,35.5,1111122 
NERRS,ioos:station:NOAA.NERRS:rkblhwq:1,2017-04-06T13:45:00Z,26.0257,-81.7332,3.68,36.8,1111122 
NERRS,ioos:station:NOAA.NERRS:rkblhwq:1,2017-04-06T14:45:00Z,26.0257,-81.7332,4.13,36.7,1111122 
NERRS,ioos:station:NOAA.NERRS:rkblhwq:1,2017-04-06T15:45:00Z,26.0257,-81.7332,4.58,36.7,1111122 
NERRS,ioos:station:NOAA.NERRS:rkblhwq:1,2017-04-06T16:45:00Z,26.0257,-81.7332,4.78,36.7,1111122 
NERRS,ioos:station:NOAA.NERRS:rkblhwq:1,2017-04-06T17:45:00Z,26.0257,-81.7332,4.4,36.7,1111122 
NERRS,ioos:station:NOAA.NERRS:rkblhwq:1,2017-04-06T18:45:00Z,26.0257,-81.7332,3.81,36.8,1111122 
NERRS,ioos:station:NOAA.NERRS:rkblhwq:1,2017-04-06T19:45:00Z,26.0257,-81.7332,3.34,36.9,1111122 
NERRS,ioos:station:NOAA.NERRS:rkblhwq:1,2017-04-06T20:45:00Z,26.0257,-81.7332,3.01,36.9,1111122 
NERRS,ioos:station:NOAA.NERRS:rkblhwq:1,2017-04-06T21:45:00Z,26.0257,-81.7332,2.9,36.9,1111122 
NERRS,ioos:station:NOAA.NERRS:rkblhwq:1,2017-04-06T22:45:00Z,26.0257,-81.7332,2.93,36.9,1111122 
NERRS,ioos:station:NOAA.NERRS:rkblhwq:1,2017-04-06T23:45:00Z,26.0257,-81.7332,3.15,36.9,1111122 
NERRS,ioos:station:NOAA.NERRS:rkblhwq:1,2017-04-07T00:45:00Z,26.0257,-81.7332,3.48,36.8,1111122 
NERRS,ioos:station:NOAA.NERRS:rkblhwq:1,2017-04-07T01:45:00Z,26.0257,-81.7332,3.79,36.9,1111122 
NERRS,ioos:station:NOAA.NERRS:rkblhwq:1,2017-04-07T02:45:00Z,26.0257,-81.7332,4.03,36.8,1111122 
NERRS,ioos:station:NOAA.NERRS:rkblhwq:1,2017-04-07T03:45:00Z,26.0257,-81.7332,4.22,36.8,1111122 
NERRS,ioos:station:NOAA.NERRS:rkblhwq:1,2017-04-07T04:45:00Z,26.0257,-81.7332,4.06,36.9,1111122 
NERRS,ioos:station:NOAA.NERRS:rkblhwq:1,2017-04-07T05:45:00Z,26.0257,-81.7332,3.78,37.0,1111122 
NERRS,ioos:station:NOAA.NERRS:rkblhwq:1,2017-04-07T06:45:00Z,26.0257,-81.7332,3.4,37.0,1111122 
NERRS,ioos:station:NOAA.NERRS:rkblhwq:1,2017-04-07T07:45:00Z,26.0257,-81.7332,3.02,37.1,1111122 
NERRS,ioos:station:NOAA.NERRS:rkblhwq:1,2017-04-07T08:45:00Z,26.0257,-81.7332,2.62,37.1,1111122 
NERRS,ioos:station:NOAA.NERRS:rkblhwq:1,2017-04-07T09:45:00Z,26.0257,-81.7332,2.27,37.1,1111122 
NERRS,ioos:station:NOAA.NERRS:rkblhwq:1,2017-04-07T10:45:00Z,26.0257,-81.7332,2.07,37.2,1111122 
NERRS,ioos:station:NOAA.NERRS:rkblhwq:1,2017-04-07T11:45:00Z,26.0257,-81.7332,2.25,37.1,1111122 
NERRS,ioos:station:NOAA.NERRS:rkblhwq:1,2017-04-07T12:45:00Z,26.0257,-81.7332,2.57,37.1,1111122 
NERRS,ioos:station:NOAA.NERRS:rkblhwq:1,2017-04-07T13:45:00Z,26.0257,-81.7332,2.95,37.1,1111122 
NERRS,ioos:station:NOAA.NERRS:rkblhwq:1,2017-04-07T14:45:00Z,26.0257,-81.7332,3.36,37.1,1111122 
NERRS,ioos:station:NOAA.NERRS:rkblhwq:1,2017-04-07T15:45:00Z,26.0257,-81.7332,3.73,37.1,1111122 
NERRS,ioos:station:NOAA.NERRS:rkblhwq:1,2017-04-07T16:45:00Z,26.0257,-81.7332,3.9,37.1,1111122 
NERRS,ioos:station:NOAA.NERRS:rkblhwq:1,2017-04-07T17:45:00Z,26.0257,-81.7332,3.66,37.1,1111122 
NERRS,ioos:station:NOAA.NERRS:rkblhwq:1,2017-04-07T18:45:00Z,26.0257,-81.7332,3.36,37.2,1111122 
NERRS,ioos:station:NOAA.NERRS:rkblhwq:1,2017-04-07T19:45:00Z,26.0257,-81.7332,3.07,37.2,1111122 
NERRS,ioos:station:NOAA.NERRS:rkblhwq:1,2017-04-07T20:45:00Z,26.0257,-81.7332,2.75,37.3,1111122 
NERRS,ioos:station:NOAA.NERRS:rkblhwq:1,2017-04-07T21:45:00Z,26.0257,-81.7332,2.48,37.3,1111122 
NERRS,ioos:station:NOAA.NERRS:rkblhwq:1,2017-04-07T22:45:00Z,26.0257,-81.7332,2.4,37.4,1111122 
NERRS,ioos:station:NOAA.NERRS:rkblhwq:1,2017-04-07T23:45:00Z,26.0257,-81.7332,2.6,37.2,1111122 
NERRS,ioos:station:NOAA.NERRS:rkblhwq:1,2017-04-08T00:45:00Z,26.0257,-81.7332,2.96,37.4,1111122 
NERRS,ioos:station:NOAA.NERRS:rkblhwq:1,2017-04-08T01:45:00Z,26.0257,-81.7332,3.38,37.3,1111122 
NERRS,ioos:station:NOAA.NERRS:rkblhwq:1,2017-04-08T02:45:00Z,26.0257,-81.7332,3.82,37.2,1111122 
NERRS,ioos:station:NOAA.NERRS:rkblhwq:1,2017-04-08T03:45:00Z,26.0257,-81.7332,4.12,37.2,1111122 
NERRS,ioos:station:NOAA.NERRS:rkblhwq:1,2017-04-08T04:45:00Z,26.0257,-81.7332,4.18,37.3,1111122 
NERRS,ioos:station:NOAA.NERRS:rkblhwq:1,2017-04-08T05:45:00Z,26.0257,-81.7332,3.88,37.2,1111122 
NERRS,ioos:station:NOAA.NERRS:rkblhwq:1,2017-04-08T06:45:00Z,26.0257,-81.7332,3.49,37.4,1111122 
NERRS,ioos:station:NOAA.NERRS:rkblhwq:1,2017-04-08T07:45:00Z,26.0257,-81.7332,3.09,37.4,1111122 
NERRS,ioos:station:NOAA.NERRS:rkblhwq:1,2017-04-08T08:45:00Z,26.0257,-81.7332,2.69,37.4,1111122 
NERRS,ioos:station:NOAA.NERRS:rkblhwq:1,2017-04-08T09:45:00Z,26.0257,-81.7332,2.32,37.4,1111122 
NERRS,ioos:station:NOAA.NERRS:rkblhwq:1,2017-04-08T10:45:00Z,26.0257,-81.7332,2.04,37.4,1111122 
NERRS,ioos:station:NOAA.NERRS:rkblhwq:1,2017-04-08T11:45:00Z,26.0257,-81.7332,2.04,37.4,1111122 
NERRS,ioos:station:NOAA.NERRS:rkblhwq:1,2017-04-08T12:45:00Z,26.0257,-81.7332,2.39,37.4,1111122 
NERRS,ioos:station:NOAA.NERRS:rkblhwq:1,2017-04-08T13:45:00Z,26.0257,-81.7332,2.84,37.4,1111122 
NERRS,ioos:station:NOAA.NERRS:rkblhwq:1,2017-04-08T14:45:00Z,26.0257,-81.7332,3.35,37.3,1111122 
NERRS,ioos:station:NOAA.NERRS:rkblhwq:1,2017-04-08T15:45:00Z,26.0257,-81.7332,3.87,37.4,1111122 
NERRS,ioos:station:NOAA.NERRS:rkblhwq:1,2017-04-08T16:45:00Z,26.0257,-81.7332,4.22,37.3,1111122 
NERRS,ioos:station:NOAA.NERRS:rkblhwq:1,2017-04-08T17:45:00Z,26.0257,-81.7332,4.18,37.4,1111122 
NERRS,ioos:station:NOAA.NERRS:rkblhwq:1,2017-04-08T18:45:00Z,26.0257,-81.7332,3.8,37.3,1111122 
NERRS,ioos:station:NOAA.NERRS:rkblhwq:1,2017-04-08T19:45:00Z,26.0257,-81.7332,3.41,37.4,1111122 
NERRS,ioos:station:NOAA.NERRS:rkblhwq:1,2017-04-08T20:45:00Z,26.0257,-81.7332,3.04,37.4,1111122 
NERRS,ioos:station:NOAA.NERRS:rkblhwq:1,2017-04-08T21:45:00Z,26.0257,-81.7332,2.7,37.5,1111122 
NERRS,ioos:station:NOAA.NERRS:rkblhwq:1,2017-04-08T22:45:00Z,26.0257,-81.7332,2.42,37.6,1111122 
NERRS,ioos:station:NOAA.NERRS:rkblhwq:1,2017-04-08T23:45:00Z,26.0257,-81.7332,2.33,37.6,1111122 
NERRS,ioos:station:NOAA.NERRS:rkblhwq:1,2017-04-09T00:45:00Z,26.0257,-81.7332,2.6,37.5,1111122 
NERRS,ioos:station:NOAA.NERRS:rkblhwq:1,2017-04-09T01:45:00Z,26.0257,-81.7332,3.01,37.5,1111122 
NERRS,ioos:station:NOAA.NERRS:rkblhwq:1,2017-04-09T02:45:00Z,26.0257,-81.7332,3.51,37.4,1111122 
NERRS,ioos:station:NOAA.NERRS:rkblhwq:1,2017-04-09T03:45:00Z,26.0257,-81.7332,4.01,37.3,1111122 
NERRS,ioos:station:NOAA.NERRS:rkblhwq:1,2017-04-09T04:45:00Z,26.0257,-81.7332,4.3,37.4,1111122 
NERRS,ioos:station:NOAA.NERRS:rkblhwq:1,2017-04-09T05:45:00Z,26.0257,-81.7332,4.19,37.5,1111122 
NERRS,ioos:station:NOAA.NERRS:rkblhwq:1,2017-04-09T06:45:00Z,26.0257,-81.7332,3.78,37.4,1111122 
NERRS,ioos:station:NOAA.NERRS:rkblhwq:1,2017-04-09T07:45:00Z,26.0257,-81.7332,3.35,37.5,1111122 
NERRS,ioos:station:NOAA.NERRS:rkblhwq:1,2017-04-09T08:45:00Z,26.0257,-81.7332,2.92,37.6,1111122 
NERRS,ioos:station:NOAA.NERRS:rkblhwq:1,2017-04-09T09:45:00Z,26.0257,-81.7332,2.52,37.6,1111122 
NERRS,ioos:station:NOAA.NERRS:rkblhwq:1,2017-04-09T10:45:00Z,26.0257,-81.7332,2.19,37.6,1111122 
NERRS,ioos:station:NOAA.NERRS:rkblhwq:1,2017-04-09T11:45:00Z,26.0257,-81.7332,1.96,37.6,1111122 
NERRS,ioos:station:NOAA.NERRS:rkblhwq:1,2017-04-09T12:45:00Z,26.0257,-81.7332,2.11,37.6,1111122 
NERRS,ioos:station:NOAA.NERRS:rkblhwq:1,2017-04-09T13:45:00Z,26.0257,-81.7332,2.54,37.6,1111122 
NERRS,ioos:station:NOAA.NERRS:rkblhwq:1,2017-04-09T14:45:00Z,26.0257,-81.7332,3.01,37.5,1111122 
NERRS,ioos:station:NOAA.NERRS:rkblhwq:1,2017-04-09T15:45:00Z,26.0257,-81.7332,3.51,37.4,1111122 
NERRS,ioos:station:NOAA.NERRS:rkblhwq:1,2017-04-09T16:45:00Z,26.0257,-81.7332,3.98,37.4,1111122 
NERRS,ioos:station:NOAA.NERRS:rkblhwq:1,2017-04-09T17:45:00Z,26.0257,-81.7332,4.32,37.3,1111122 
NERRS,ioos:station:NOAA.NERRS:rkblhwq:1,2017-04-09T18:45:00Z,26.0257,-81.7332,4.32,37.5,1111122 
NERRS,ioos:station:NOAA.NERRS:rkblhwq:1,2017-04-09T19:45:00Z,26.0257,-81.7332,3.9,37.4,1111122 
NERRS,ioos:station:NOAA.NERRS:rkblhwq:1,2017-04-09T20:45:00Z,26.0257,-81.7332,3.45,37.5,1111122 
NERRS,ioos:station:NOAA.NERRS:rkblhwq:1,2017-04-09T21:45:00Z,26.0257,-81.7332,3.03,37.5,1111122 
NERRS,ioos:station:NOAA.NERRS:rkblhwq:1,2017-04-09T22:45:00Z,26.0257,-81.7332,2.66,37.6,1111122 
NERRS,ioos:station:NOAA.NERRS:rkblhwq:1,2017-04-09T23:45:00Z,26.0257,-81.7332,2.38,37.6,1111122 
NERRS,ioos:station:NOAA.NERRS:rkblhwq:1,2017-04-10T00:45:00Z,26.0257,-81.7332,2.44,37.5,1111122 
NERRS,ioos:station:NOAA.NERRS:rkblhwq:1,2017-04-10T01:45:00Z,26.0257,-81.7332,2.84,37.5,1111122 
NERRS,ioos:station:NOAA.NERRS:rkblhwq:1,2017-04-10T02:45:00Z,26.0257,-81.7332,3.31,37.4,1111122 
NERRS,ioos:station:NOAA.NERRS:rkblhwq:1,2017-04-10T03:45:00Z,26.0257,-81.7332,3.8,37.3,1111122 
NERRS,ioos:station:NOAA.NERRS:rkblhwq:1,2017-04-10T04:45:00Z,26.0257,-81.7332,4.24,37.3,1111122 
NERRS,ioos:station:NOAA.NERRS:rkblhwq:1,2017-04-10T05:45:00Z,26.0257,-81.7332,4.44,37.3,1111122 
NERRS,ioos:station:NOAA.NERRS:rkblhwq:1,2017-04-10T06:45:00Z,26.0257,-81.7332,4.24,37.3,1111122 
NERRS,ioos:station:NOAA.NERRS:rkblhwq:1,2017-04-10T07:45:00Z,26.0257,-81.7332,3.83,37.3,1111122 
NERRS,ioos:station:NOAA.NERRS:rkblhwq:1,2017-04-10T08:45:00Z,26.0257,-81.7332,3.42,37.4,1111122 
NERRS,ioos:station:NOAA.NERRS:rkblhwq:1,2017-04-10T09:45:00Z,26.0257,-81.7332,3.03,37.5,1111122 
NERRS,ioos:station:NOAA.NERRS:rkblhwq:1,2017-04-10T10:45:00Z,26.0257,-81.7332,2.66,37.5,1111122 
NERRS,ioos:station:NOAA.NERRS:rkblhwq:1,2017-04-10T11:45:00Z,26.0257,-81.7332,2.38,37.6,1111122 
NERRS,ioos:station:NOAA.NERRS:rkblhwq:1,2017-04-10T12:45:00Z,26.0257,-81.7332,2.5,37.5,1111122 
NERRS,ioos:station:NOAA.NERRS:rkblhwq:1,2017-04-10T13:45:00Z,26.0257,-81.7332,2.96,37.5,1111122 
NERRS,ioos:station:NOAA.NERRS:rkblhwq:1,2017-04-10T14:45:00Z,26.0257,-81.7332,3.53,37.4,1111122 
NERRS,ioos:station:NOAA.NERRS:rkblhwq:1,2017-04-10T15:45:00Z,26.0257,-81.7332,4.08,37.3,1111122 
NERRS,ioos:station:NOAA.NERRS:rkblhwq:1,2017-04-10T16:45:00Z,26.0257,-81.7332,4.52,37.2,1111122 
NERRS,ioos:station:NOAA.NERRS:rkblhwq:1,2017-04-10T17:45:00Z,26.0257,-81.7332,4.73,37.3,1111122 
NERRS,ioos:station:NOAA.NERRS:rkblhwq:1,2017-04-10T18:45:00Z,26.0257,-81.7332,4.5,37.3,1111122 
NERRS,ioos:station:NOAA.NERRS:rkblhwq:1,2017-04-10T19:45:00Z,26.0257,-81.7332,4.08,37.2,1111122 
NERRS,ioos:station:NOAA.NERRS:rkblhwq:1,2017-04-10T20:45:00Z,26.0257,-81.7332,3.59,37.4,1111122 
NERRS,ioos:station:NOAA.NERRS:rkblhwq:1,2017-04-10T21:45:00Z,26.0257,-81.7332,3.11,37.5,1111122 
NERRS,ioos:station:NOAA.NERRS:rkblhwq:1,2017-04-10T22:45:00Z,26.0257,-81.7332,2.68,37.6,1111122 
NERRS,ioos:station:NOAA.NERRS:rkblhwq:1,2017-04-10T23:45:00Z,26.0257,-81.7332,2.32,37.6,1111122 
NERRS,ioos:station:NOAA.NERRS:rkblhwq:1,2017-04-11T00:45:00Z,26.0257,-81.7332,2.14,37.6,1111122 
NERRS,ioos:station:NOAA.NERRS:rkblhwq:1,2017-04-11T01:45:00Z,26.0257,-81.7332,2.39,37.5,1111122 
NERRS,ioos:station:NOAA.NERRS:rkblhwq:1,2017-04-11T02:45:00Z,26.0257,-81.7332,2.81,37.7,1111122 
NERRS,ioos:station:NOAA.NERRS:rkblhwq:1,2017-04-11T03:45:00Z,26.0257,-81.7332,3.27,37.5,1111122 
NERRS,ioos:station:NOAA.NERRS:rkblhwq:1,2017-04-11T04:45:00Z,26.0257,-81.7332,3.75,37.5,1111122 
NERRS,ioos:station:NOAA.NERRS:rkblhwq:1,2017-04-11T05:45:00Z,26.0257,-81.7332,4.13,37.4,1111122 
NERRS,ioos:station:NOAA.NERRS:rkblhwq:1,2017-04-11T06:45:00Z,26.0257,-81.7332,4.24,37.5,1111122 
NERRS,ioos:station:NOAA.NERRS:rkblhwq:1,2017-04-11T07:45:00Z,26.0257,-81.7332,3.93,37.3,1111122 
NERRS,ioos:station:NOAA.NERRS:rkblhwq:1,2017-04-11T08:45:00Z,26.0257,-81.7332,3.53,37.5,1111122 
NERRS,ioos:station:NOAA.NERRS:rkblhwq:1,2017-04-11T09:45:00Z,26.0257,-81.7332,3.15,37.5,1111122 
NERRS,ioos:station:NOAA.NERRS:rkblhwq:1,2017-04-11T10:45:00Z,26.0257,-81.7332,2.8,37.6,1111122 
NERRS,ioos:station:NOAA.NERRS:rkblhwq:1,2017-04-11T11:45:00Z,26.0257,-81.7332,2.51,37.6,1111122 
NERRS,ioos:station:NOAA.NERRS:rkblhwq:1,2017-04-11T12:45:00Z,26.0257,-81.7332,2.49,37.6,1111122 
NERRS,ioos:station:NOAA.NERRS:rkblhwq:1,2017-04-11T13:45:00Z,26.0257,-81.7332,2.84,37.6,1111122 
NERRS,ioos:station:NOAA.NERRS:rkblhwq:1,2017-04-11T14:45:00Z,26.0257,-81.7332,3.33,37.5,1111122 
NERRS,ioos:station:NOAA.NERRS:rkblhwq:1,2017-04-11T15:45:00Z,26.0257,-81.7332,3.84,37.4,1111122 
NERRS,ioos:station:NOAA.NERRS:rkblhwq:1,2017-04-11T16:45:00Z,26.0257,-81.7332,4.34,37.3,1111122 
NERRS,ioos:station:NOAA.NERRS:rkblhwq:1,2017-04-11T17:45:00Z,26.0257,-81.7332,4.73,37.2,1111122 
NERRS,ioos:station:NOAA.NERRS:rkblhwq:1,2017-04-11T18:45:00Z,26.0257,-81.7332,4.88,37.3,1111122 
NERRS,ioos:station:NOAA.NERRS:rkblhwq:1,2017-04-11T19:45:00Z,26.0257,-81.7332,4.62,37.3,1111122 
NERRS,ioos:station:NOAA.NERRS:rkblhwq:1,2017-04-11T20:45:00Z,26.0257,-81.7332,4.18,37.2,1111122 
NERRS,ioos:station:NOAA.NERRS:rkblhwq:1,2017-04-11T21:45:00Z,26.0257,-81.7332,3.69,37.4,1111122 
NERRS,ioos:station:NOAA.NERRS:rkblhwq:1,2017-04-11T22:45:00Z,26.0257,-81.7332,3.2,37.5,1111122 
NERRS,ioos:station:NOAA.NERRS:rkblhwq:1,2017-04-11T23:45:00Z,26.0257,-81.7332,2.75,37.6,1111122 
NERRS,ioos:station:NOAA.NERRS:rkblhwq:1,2017-04-12T00:45:00Z,26.0257,-81.7332,2.41,37.6,1111122 
NERRS,ioos:station:NOAA.NERRS:rkblhwq:1,2017-04-12T01:45:00Z,26.0257,-81.7332,2.32,37.6,1111122 
NERRS,ioos:station:NOAA.NERRS:rkblhwq:1,2017-04-12T02:45:00Z,26.0257,-81.7332,2.65,37.5,1111122 
NERRS,ioos:station:NOAA.NERRS:rkblhwq:1,2017-04-12T03:45:00Z,26.0257,-81.7332,3.08,37.5,1111122 
NERRS,ioos:station:NOAA.NERRS:rkblhwq:1,2017-04-12T04:45:00Z,26.0257,-81.7332,3.6,37.4,1111122 
NERRS,ioos:station:NOAA.NERRS:rkblhwq:1,2017-04-12T05:45:00Z,26.0257,-81.7332,4.08,37.4,1111122 
NERRS,ioos:station:NOAA.NERRS:rkblhwq:1,2017-04-12T06:45:00Z,26.0257,-81.7332,4.39,37.3,1111122 
NERRS,ioos:station:NOAA.NERRS:rkblhwq:1,2017-04-12T07:45:00Z,26.0257,-81.7332,4.35,37.4,1111122 
NERRS,ioos:station:NOAA.NERRS:rkblhwq:1,2017-04-12T08:45:00Z,26.0257,-81.7332,3.94,37.3,1111122 
NERRS,ioos:station:NOAA.NERRS:rkblhwq:1,2017-04-12T09:45:00Z,26.0257,-81.7332,3.52,37.3,1111122 
NERRS,ioos:station:NOAA.NERRS:rkblhwq:1,2017-04-12T10:45:00Z,26.0257,-81.7332,3.16,37.4,1111122 
NERRS,ioos:station:NOAA.NERRS:rkblhwq:1,2017-04-12T11:45:00Z,26.0257,-81.7332,2.85,37.5,1111122 
NERRS,ioos:station:NOAA.NERRS:rkblhwq:1,2017-04-12T12:45:00Z,26.0257,-81.7332,2.7,37.5,1111122 
NERRS,ioos:station:NOAA.NERRS:rkblhwq:1,2017-04-12T13:45:00Z,26.0257,-81.7332,2.92,37.4,1111122 
NERRS,ioos:station:NOAA.NERRS:rkblhwq:1,2017-04-12T14:45:00Z,26.0257,-81.7332,3.33,37.4,1111122 
NERRS,ioos:station:NOAA.NERRS:rkblhwq:1,2017-04-12T15:45:00Z,26.0257,-81.7332,3.81,37.3,1111122 
NERRS,ioos:station:NOAA.NERRS:rkblhwq:1,2017-04-12T16:45:00Z,26.0257,-81.7332,4.32,37.2,1111122 
NERRS,ioos:station:NOAA.NERRS:rkblhwq:1,2017-04-12T17:45:00Z,26.0257,-81.7332,4.68,37.2,1111122 
NERRS,ioos:station:NOAA.NERRS:rkblhwq:1,2017-04-12T18:45:00Z,26.0257,-81.7332,4.81,37.3,1111122 
NERRS,ioos:station:NOAA.NERRS:rkblhwq:1,2017-04-12T19:45:00Z,26.0257,-81.7332,4.55,37.3,1111122 
NERRS,ioos:station:NOAA.NERRS:rkblhwq:1,2017-04-12T20:45:00Z,26.0257,-81.7332,4.12,37.1,1111122 
NERRS,ioos:station:NOAA.NERRS:rkblhwq:1,2017-04-12T21:45:00Z,26.0257,-81.7332,3.66,37.3,1111122 
NERRS,ioos:station:NOAA.NERRS:rkblhwq:1,2017-04-12T22:45:00Z,26.0257,-81.7332,3.18,37.4,1111122 
NERRS,ioos:station:NOAA.NERRS:rkblhwq:1,2017-04-12T23:45:00Z,26.0257,-81.7332,2.73,37.5,1111122 